Miscellaneous Local Product
Issued by NWS Hastings, NE

Home | Current Version | Previous Version | Text Only | Print | Product List | Glossary Off
Versions: 1 2 3 4 5 6 7 8 9 10 11 12 13 14 15 16 17 18 19 20 21 22 23 24 25 26 27 28 29 30 31 32 33 34 35 36 37 38 39 40 41 42 43 44 45 46 47 48 49 50

926
AXUS43 KGID 220302
MISGRI

GID CWA HOURLY WEATHER ROUNDUP
NATIONAL WEATHER SERVICE HASTINGS NE
900 PM CST WED FEB 21 2018

NOTE: "FAIR" INDICATES FEW OR NO CLOUDS BELOW 12,000 FEET WITH NO
SIGNIFICANT WEATHER AND/OR OBSTRUCTIONS TO VISIBILITY.

...SOUTH CENTRAL NEBRASKA...

CITY           SKY/WX    TMP DP  RH WIND       PRES   REMARKS
GRAND ISLAND   CLOUDY    24  12  60 E10       30.46F WCI  14
KEARNEY        CLOUDY    25  10  53 E10       30.42F WCI  15
HASTINGS       CLOUDY    24   6  46 E9        30.44F WCI  14
ORD            CLOUDY    21  12  68 SE7       30.45R WCI  12
YORK           CLOUDY    23  12  63 E13       30.48S WCI  11
AURORA         CLOUDY    23  12  61 E10       30.46F WCI  12
LEXINGTON      CLOUDY    27   9  47 E10       30.39F WCI  17
HOLDREGE       CLOUDY    25   9  49 E9        30.40S WCI  16
HEBRON         CLOUDY    26  14  60 E9        30.47F WCI  17

...NEBRASKA PANHANDLE...

CITY           SKY/WX    TMP DP  RH WIND       PRES   REMARKS
CHADRON        FAIR       0  -5  79 W9        30.25R WCI -15
ALLIANCE       FAIR      11   7  84 S13       30.22R WCI  -4
SCOTTSBLUFF    FAIR      16   9  74 E12       30.21S WCI   3
SIDNEY         FAIR      12   7  80 SE6       30.22S WCI   3

...WESTERN AND NORTH CENTRAL NEBRASKA...

CITY           SKY/WX    TMP DP  RH WIND       PRES   REMARKS
VALENTINE      FAIR      14   5  67 S12       30.35S WCI   0
AINSWORTH      FAIR      13   6  74 S8        30.38S WCI   2
ONEILL         CLOUDY    19  11  73 SE6       30.46F WCI  10
BROKEN BOW     CLOUDY    24  11  57 SE8       30.39F WCI  15
IMPERIAL       CLOUDY    21  14  74 SE6       30.32R WCI  13
NORTH PLATTE   CLOUDY    21  12  68 SE7       30.37S WCI  12
MCCOOK         CLOUDY    26   9  48 E9        30.36S WCI  17

...EASTERN NEBRASKA...

CITY           SKY/WX    TMP DP  RH WIND       PRES   REMARKS
NORFOLK        CLOUDY    20  12  71 SE8       30.51R WCI  10
SO SIOUX CITY  MOCLDY    19  12  74 E9        30.56F WCI   8
TEKAMAH        CLOUDY    24  16  71 E8        30.56S WCI  15
COLUMBUS       CLOUDY    22  15  75 E9        30.53S WCI  12
ALBION         CLOUDY    20  12  71 E5        30.49S WCI  14
OMAHA EPPLEY   CLOUDY    24  14  65 E6        30.57S WCI  17
OFFUTT AFB     CLOUDY    24  15  68 E9        30.55R WCI  15
MILLARD        CLOUDY    26  16  64 E5        30.55S WCI  21
LINCOLN        CLOUDY    25  14  63 NE13      30.53S WCI  14
NEBRASKA CITY  CLOUDY    26  22  84 E12       30.51S WCI  16
BEATRICE       CLOUDY    26  18  71 E12       30.49F WCI  16
FALLS CITY     CLOUDY    27  21  78 E8        30.50F WCI  19

...NORTHERN KANSAS...

CITY           SKY/WX    TMP DP  RH WIND       PRES   REMARKS
GOODLAND       CLOUDY    23   5  46 SE12      30.26F WCI  12
HILL CITY      CLOUDY    26   2  35 SE6       30.41R WCI  19
NORTON         CLOUDY    27   0  31 E7        30.38R WCI  19
PHILLIPSBURG   MOCLDY    28   3  34 E9        30.43R WCI  20
SMITH CENTER   MOCLDY    25   7  46 E10       30.44S WCI  15
BELOIT         CLOUDY    27  10  50 NE12      30.45F WCI  16
HAYS           CLOUDY    25   5  42 E13       30.40S WCI  14
RUSSELL        CLOUDY    27  10  49 NE10      30.39F WCI  17
CONCORDIA      CLOUDY    25  14  63 E12       30.44F WCI  14
SALINA         LGT SNOW  27  18  69 NE9       30.44F WCI  18
TOPEKA         MIX PCPN  28  24  85 NE14      30.47F WCI  17



USA.gov is the U.S. government's official web portal to all federal, state and local government web resources and services.